Time,TemperatureF,DewpointF,PressureIn,WindDirection,WindDirectionDegrees,WindSpeedMPH,WindSpeedGustMPH,Humidity,HourlyPrecipIn,Conditions,Clouds,dailyrainin,SoftwareType,DateUTC
2013-02-09 00:00:00,24.9,22.4,30.40,SE,142,0.0,0.0,90,0.00,,,0.00,Wunderground v.1.15,2013-02-09 06:00:00,
2013-02-09 00:10:00,24.9,22.4,30.40,SSE,150,0.0,1.0,90,0.00,,,0.00,Wunderground v.1.15,2013-02-09 06:10:00,
2013-02-09 00:15:00,25.0,22.5,30.39,SSE,150,1.0,1.0,90,0.00,,,0.00,Wunderground v.1.15,2013-02-09 06:15:00,
2013-02-09 00:25:00,25.0,22.2,30.40,ESE,111,1.0,1.0,89,0.00,,,0.00,Wunderground v.1.15,2013-02-09 06:25:00,
2013-02-09 00:30:00,25.0,22.2,30.39,ESE,112,0.0,0.0,89,0.00,,,0.00,Wunderground v.1.15,2013-02-09 06:30:00,
2013-02-09 00:40:00,25.1,22.6,30.40,South,176,1.0,2.0,90,0.00,,,0.00,Wunderground v.1.15,2013-02-09 06:40:00,
2013-02-09 00:45:00,25.2,22.7,30.39,SSE,153,1.0,2.0,90,0.00,,,0.00,Wunderground v.1.15,2013-02-09 06:45:00,
2013-02-09 00:55:00,25.3,22.8,30.39,SSE,156,0.0,0.0,90,0.00,,,0.00,Wunderground v.1.15,2013-02-09 06:55:00,
2013-02-09 01:00:00,25.4,22.9,30.39,SW,215,0.0,0.0,90,0.00,,,0.00,Wunderground v.1.15,2013-02-09 07:00:00,
2013-02-09 01:10:00,25.4,22.9,30.40,SE,142,0.0,0.0,90,0.00,,,0.00,Wunderground v.1.15,2013-02-09 07:10:00,
2013-02-09 01:15:00,25.5,23.0,30.40,SE,146,0.0,0.0,90,0.00,,,0.00,Wunderground v.1.15,2013-02-09 07:15:00,
2013-02-09 01:25:00,25.5,22.7,30.39,South,185,0.0,0.0,89,0.00,,,0.00,Wunderground v.1.15,2013-02-09 07:25:00,
2013-02-09 01:35:00,25.6,22.8,30.40,South,174,0.0,0.0,89,0.00,,,0.00,Wunderground v.1.15,2013-02-09 07:35:00,
2013-02-09 01:45:00,25.8,23.0,30.40,SSE,159,0.0,0.0,89,0.00,,,0.00,Wunderground v.1.15,2013-02-09 07:45:00,
2013-02-09 01:55:00,25.8,23.0,30.40,SSE,159,0.0,0.0,89,0.00,,,0.00,Wunderground v.1.15,2013-02-09 07:55:00,
2013-02-09 02:00:00,25.8,23.0,30.40,SE,124,0.0,0.0,89,0.00,,,0.00,Wunderground v.1.15,2013-02-09 08:00:00,
2013-02-09 02:10:00,25.9,23.1,30.39,SSE,149,0.0,0.0,89,0.00,,,0.00,Wunderground v.1.15,2013-02-09 08:10:00,
2013-02-09 02:15:00,25.9,22.8,30.39,East,100,0.0,1.0,88,0.00,,,0.00,Wunderground v.1.15,2013-02-09 08:15:00,
2013-02-09 02:25:00,26.1,23.0,30.39,SSE,153,2.0,3.0,88,0.00,,,0.00,Wunderground v.1.15,2013-02-09 08:25:00,
2013-02-09 02:35:00,26.2,22.9,30.38,SE,137,2.0,3.0,87,0.00,,,0.00,Wunderground v.1.15,2013-02-09 08:35:00,
2013-02-09 02:45:00,26.2,22.9,30.39,SSE,149,1.0,2.0,87,0.00,,,0.00,Wunderground v.1.15,2013-02-09 08:45:00,
2013-02-09 02:55:00,26.3,23.0,30.39,SSW,194,1.0,2.0,87,0.00,,,0.00,Wunderground v.1.15,2013-02-09 08:55:00,
2013-02-09 03:00:00,26.3,23.0,30.38,SE,134,1.0,1.0,87,0.00,,,0.00,Wunderground v.1.15,2013-02-09 09:00:00,
2013-02-09 03:05:00,26.3,23.0,30.38,SSE,148,1.0,1.0,87,0.00,,,0.00,Wunderground v.1.15,2013-02-09 09:05:00,
2013-02-09 03:15:00,26.4,22.8,30.38,SSE,165,2.0,5.0,86,0.00,,,0.00,Wunderground v.1.15,2013-02-09 09:15:00,
2013-02-09 03:20:00,26.4,23.1,30.38,SSE,163,2.0,2.0,87,0.00,,,0.00,Wunderground v.1.15,2013-02-09 09:20:00,
2013-02-09 03:30:00,26.4,22.8,30.38,SSE,162,3.0,3.0,86,0.00,,,0.00,Wunderground v.1.15,2013-02-09 09:30:00,
2013-02-09 03:35:00,26.4,22.8,30.38,SE,131,2.0,3.0,86,0.00,,,0.00,Wunderground v.1.15,2013-02-09 09:35:00,
2013-02-09 03:45:00,26.4,22.8,30.38,SE,134,2.0,3.0,86,0.00,,,0.00,Wunderground v.1.15,2013-02-09 09:45:00,
2013-02-09 03:50:00,26.5,22.9,30.38,SSE,151,3.0,3.0,86,0.00,,,0.00,Wunderground v.1.15,2013-02-09 09:50:00,
2013-02-09 04:00:00,26.5,22.9,30.39,SSE,154,2.0,2.0,86,0.00,,,0.00,Wunderground v.1.15,2013-02-09 10:00:00,
2013-02-09 04:10:00,26.5,22.9,30.39,SE,142,2.0,2.0,86,0.00,,,0.00,Wunderground v.1.15,2013-02-09 10:10:00,
2013-02-09 04:20:00,26.7,22.8,30.39,South,190,3.0,3.0,85,0.00,,,0.00,Wunderground v.1.15,2013-02-09 10:20:00,
2013-02-09 04:30:00,26.7,22.8,30.39,SSE,153,2.0,2.0,85,0.00,,,0.00,Wunderground v.1.15,2013-02-09 10:30:00,
2013-02-09 04:40:00,26.9,23.0,30.39,SE,131,2.0,2.0,85,0.00,,,0.00,Wunderground v.1.15,2013-02-09 10:40:00,
2013-02-09 04:50:00,26.9,23.0,30.39,South,186,2.0,6.0,85,0.00,,,0.00,Wunderground v.1.15,2013-02-09 10:50:00,
2013-02-09 04:55:00,27.0,23.1,30.39,SE,142,2.0,6.0,85,0.00,,,0.00,Wunderground v.1.15,2013-02-09 10:55:00,
2013-02-09 05:00:00,27.0,23.1,30.39,ENE,74,1.0,4.0,85,0.00,,,0.00,Wunderground v.1.15,2013-02-09 11:00:00,
2013-02-09 05:10:00,27.1,23.2,30.38,SSE,147,1.0,1.0,85,0.00,,,0.00,Wunderground v.1.15,2013-02-09 11:10:00,
2013-02-09 05:20:00,27.1,23.5,30.39,SSE,155,1.0,1.0,86,0.00,,,0.00,Wunderground v.1.15,2013-02-09 11:20:00,
2013-02-09 05:25:00,27.0,23.4,30.38,SE,129,0.0,1.0,86,0.00,,,0.00,Wunderground v.1.15,2013-02-09 11:25:00,
2013-02-09 05:35:00,27.0,23.1,30.38,SE,129,1.0,1.0,85,0.00,,,0.00,Wunderground v.1.15,2013-02-09 11:35:00,
2013-02-09 05:40:00,27.0,23.4,30.39,SSE,164,1.0,2.0,86,0.00,,,0.00,Wunderground v.1.15,2013-02-09 11:40:00,
2013-02-09 05:50:00,27.0,23.4,30.39,SE,129,1.0,1.0,86,0.00,,,0.00,Wunderground v.1.15,2013-02-09 11:50:00,
2013-02-09 05:55:00,26.9,23.3,30.39,SE,131,1.0,2.0,86,0.00,,,0.00,Wunderground v.1.15,2013-02-09 11:55:00,
2013-02-09 06:00:00,26.9,23.3,30.39,SSE,160,1.0,1.0,86,0.00,,,0.00,Wunderground v.1.15,2013-02-09 12:00:00,
2013-02-09 06:10:00,26.9,23.3,30.39,SE,132,2.0,2.0,86,0.00,,,0.00,Wunderground v.1.15,2013-02-09 12:10:00,
2013-02-09 06:20:00,27.0,23.4,30.37,SSE,155,1.0,2.0,86,0.00,,,0.00,Wunderground v.1.15,2013-02-09 12:20:00,
2013-02-09 06:25:00,27.0,23.4,30.37,SSE,165,1.0,4.0,86,0.00,,,0.00,Wunderground v.1.15,2013-02-09 12:25:00,
2013-02-09 06:35:00,27.1,23.5,30.37,SE,132,3.0,4.0,86,0.00,,,0.00,Wunderground v.1.15,2013-02-09 12:35:00,
2013-02-09 06:40:00,27.1,23.5,30.37,SSE,158,3.0,3.0,86,0.00,,,0.00,Wunderground v.1.15,2013-02-09 12:40:00,
2013-02-09 06:50:00,27.3,23.4,30.37,SSE,148,3.0,3.0,85,0.00,,,0.00,Wunderground v.1.15,2013-02-09 12:50:00,
2013-02-09 06:55:00,27.3,23.4,30.38,SSE,158,3.0,4.0,85,0.00,,,0.00,Wunderground v.1.15,2013-02-09 12:55:00,
2013-02-09 07:00:00,27.4,23.2,30.38,SSE,150,3.0,4.0,84,0.00,,,0.00,Wunderground v.1.15,2013-02-09 13:00:00,
2013-02-09 07:10:00,27.4,23.2,30.38,SSE,147,4.0,4.0,84,0.00,,,0.00,Wunderground v.1.15,2013-02-09 13:10:00,
2013-02-09 07:20:00,27.5,23.3,30.38,SE,131,2.0,2.0,84,0.00,,,0.00,Wunderground v.1.15,2013-02-09 13:20:00,
2013-02-09 07:25:00,27.5,23.3,30.38,SE,134,1.0,2.0,84,0.00,,,0.00,Wunderground v.1.15,2013-02-09 13:25:00,
2013-02-09 07:35:00,27.6,23.4,30.38,ESE,122,2.0,3.0,84,0.00,,,0.00,Wunderground v.1.15,2013-02-09 13:35:00,
2013-02-09 07:40:00,27.7,23.2,30.38,ENE,72,2.0,2.0,83,0.00,,,0.00,Wunderground v.1.15,2013-02-09 13:40:00,
2013-02-09 07:50:00,27.8,23.3,30.38,SSE,156,3.0,3.0,83,0.00,,,0.00,Wunderground v.1.15,2013-02-09 13:50:00,
2013-02-09 07:55:00,27.9,23.4,30.38,SSE,152,3.0,3.0,83,0.00,,,0.00,Wunderground v.1.15,2013-02-09 13:55:00,
2013-02-09 08:00:00,28.0,23.2,30.38,SE,137,3.0,3.0,82,0.00,,,0.00,Wunderground v.1.15,2013-02-09 14:00:00,
2013-02-09 08:10:00,28.2,23.7,30.37,SSE,153,3.0,6.0,83,0.00,,,0.00,Wunderground v.1.15,2013-02-09 14:10:00,
2013-02-09 08:15:00,28.3,23.8,30.38,SE,131,2.0,6.0,83,0.00,,,0.00,Wunderground v.1.15,2013-02-09 14:15:00,
2013-02-09 08:25:00,28.4,23.6,30.38,SE,142,2.0,3.0,82,0.00,,,0.00,Wunderground v.1.15,2013-02-09 14:25:00,
2013-02-09 08:35:00,28.6,23.8,30.38,SE,131,2.0,2.0,82,0.00,,,0.00,Wunderground v.1.15,2013-02-09 14:35:00,
2013-02-09 08:45:00,28.6,23.8,30.37,SSE,159,4.0,7.0,82,0.00,,,0.00,Wunderground v.1.15,2013-02-09 14:45:00,
2013-02-09 08:55:00,28.7,23.6,30.37,South,191,4.0,4.0,81,0.00,,,0.00,Wunderground v.1.15,2013-02-09 14:55:00,
2013-02-09 09:00:00,28.9,23.8,30.37,SSE,154,4.0,4.0,81,0.00,,,0.00,Wunderground v.1.15,2013-02-09 15:00:00,
2013-02-09 09:10:00,29.1,24.3,30.37,South,188,3.0,3.0,82,0.00,,,0.00,Wunderground v.1.15,2013-02-09 15:10:00,
2013-02-09 09:15:00,29.1,24.0,30.37,East,101,3.0,4.0,81,0.00,,,0.00,Wunderground v.1.15,2013-02-09 15:15:00,
2013-02-09 09:25:00,29.1,23.7,30.37,SSE,154,4.0,5.0,80,0.00,,,0.00,Wunderground v.1.15,2013-02-09 15:25:00,
2013-02-09 09:30:00,29.2,24.1,30.37,SSE,152,5.0,5.0,81,0.00,,,0.00,Wunderground v.1.15,2013-02-09 15:30:00,
2013-02-09 09:40:00,29.3,23.9,30.37,SSE,154,5.0,5.0,80,0.00,,,0.00,Wunderground v.1.15,2013-02-09 15:40:00,
2013-02-09 09:45:00,29.4,24.0,30.37,SSE,150,5.0,5.0,80,0.00,,,0.00,Wunderground v.1.15,2013-02-09 15:45:00,
2013-02-09 09:55:00,29.7,24.3,30.38,SSE,156,3.0,4.0,80,0.00,,,0.00,Wunderground v.1.15,2013-02-09 15:55:00,
2013-02-09 10:00:00,29.6,24.2,30.38,SSE,162,4.0,4.0,80,0.00,,,0.00,Wunderground v.1.15,2013-02-09 16:00:00,
2013-02-09 10:10:00,29.6,24.2,30.37,SSE,157,4.0,4.0,80,0.00,,,0.00,Wunderground v.1.15,2013-02-09 16:10:00,
2013-02-09 10:20:00,29.5,24.1,30.37,SE,134,5.0,5.0,80,0.00,,,0.00,Wunderground v.1.15,2013-02-09 16:20:00,
2013-02-09 10:30:00,29.6,24.5,30.37,SSE,151,3.0,5.0,81,0.00,,,0.00,Wunderground v.1.15,2013-02-09 16:30:00,
2013-02-09 10:35:00,29.6,24.2,30.37,SE,125,4.0,6.0,80,0.00,,,0.00,Wunderground v.1.15,2013-02-09 16:35:00,
2013-02-09 10:45:00,29.9,24.8,30.36,SE,124,4.0,5.0,81,0.00,,,0.00,Wunderground v.1.15,2013-02-09 16:45:00,
2013-02-09 10:50:00,30.0,24.9,30.36,SE,137,4.0,4.0,81,0.00,,,0.00,Wunderground v.1.15,2013-02-09 16:50:00,
2013-02-09 11:00:00,30.0,24.9,30.35,SE,139,4.0,4.0,81,0.00,,,0.00,Wunderground v.1.15,2013-02-09 17:00:00,
2013-02-09 11:10:00,30.1,24.7,30.35,SE,141,4.0,4.0,80,0.00,,,0.00,Wunderground v.1.15,2013-02-09 17:10:00,
2013-02-09 11:20:00,30.7,25.3,30.34,SSE,162,3.0,3.0,80,0.00,,,0.00,Wunderground v.1.15,2013-02-09 17:20:00,
2013-02-09 11:30:00,30.9,25.5,30.34,SE,136,3.0,5.0,80,0.00,,,0.00,Wunderground v.1.15,2013-02-09 17:30:00,
2013-02-09 11:35:00,30.9,25.8,30.34,SSE,152,3.0,5.0,81,0.00,,,0.00,Wunderground v.1.15,2013-02-09 17:35:00,
2013-02-09 11:45:00,31.1,26.0,30.33,SE,129,3.0,5.0,81,0.00,,,0.00,Wunderground v.1.15,2013-02-09 17:45:00,
2013-02-09 11:50:00,31.0,25.6,30.33,SSE,162,5.0,5.0,80,0.00,,,0.00,Wunderground v.1.15,2013-02-09 17:50:00,
2013-02-09 12:00:00,30.9,25.5,30.32,SSE,166,4.0,5.0,80,0.00,,,0.00,Wunderground v.1.15,2013-02-09 18:00:00,
2013-02-09 12:10:00,30.9,25.8,30.31,SSE,154,4.0,4.0,81,0.00,,,0.00,Wunderground v.1.15,2013-02-09 18:10:00,
2013-02-09 12:20:00,30.9,25.8,30.31,ENE,69,4.0,4.0,81,0.00,,,0.00,Wunderground v.1.15,2013-02-09 18:20:00,
2013-02-09 12:25:00,31.1,26.0,30.30,ESE,119,3.0,4.0,81,0.00,,,0.00,Wunderground v.1.15,2013-02-09 18:25:00,
2013-02-09 12:35:00,31.4,25.9,30.30,SSE,154,5.0,7.0,80,0.00,,,0.00,Wunderground v.1.15,2013-02-09 18:35:00,
2013-02-09 12:40:00,31.9,26.4,30.30,SSE,156,5.0,5.0,80,0.00,,,0.00,Wunderground v.1.15,2013-02-09 18:40:00,
2013-02-09 12:50:00,33.6,27.8,30.30,SSE,148,5.0,8.0,79,0.00,,,0.00,Wunderground v.1.15,2013-02-09 18:50:00,
2013-02-09 12:55:00,33.2,26.8,30.30,South,179,5.0,9.0,77,0.00,,,0.00,Wunderground v.1.15,2013-02-09 18:55:00,
2013-02-09 13:00:00,32.7,26.6,30.29,South,187,6.0,6.0,78,0.00,,,0.00,Wunderground v.1.15,2013-02-09 19:00:00,
2013-02-09 13:10:00,32.7,26.6,30.28,SSE,166,6.0,8.0,78,0.00,,,0.00,Wunderground v.1.15,2013-02-09 19:10:00,
2013-02-09 13:15:00,32.5,26.7,30.28,SE,132,5.0,8.0,79,0.00,,,0.00,Wunderground v.1.15,2013-02-09 19:15:00,
2013-02-09 13:25:00,33.0,27.2,30.27,SSW,205,7.0,8.0,79,0.00,,,0.00,Wunderground v.1.15,2013-02-09 19:25:00,
2013-02-09 13:35:00,32.9,26.8,30.27,SE,140,6.0,6.0,78,0.00,,,0.00,Wunderground v.1.15,2013-02-09 19:35:00,
2013-02-09 13:40:00,33.5,28.0,30.27,SSE,161,6.0,6.0,80,0.00,,,0.00,Wunderground v.1.15,2013-02-09 19:40:00,
2013-02-09 13:50:00,33.2,27.1,30.26,SE,143,6.0,6.0,78,0.00,,,0.00,Wunderground v.1.15,2013-02-09 19:50:00,
2013-02-09 14:00:00,33.0,26.9,30.26,SE,139,6.0,8.0,78,0.00,,,0.00,Wunderground v.1.15,2013-02-09 20:00:00,
2013-02-09 14:10:00,33.4,27.3,30.25,SSE,156,7.0,7.0,78,0.00,,,0.00,Wunderground v.1.15,2013-02-09 20:10:00,
2013-02-09 14:15:00,33.9,27.8,30.24,SE,146,5.0,8.0,78,0.00,,,0.00,Wunderground v.1.15,2013-02-09 20:15:00,
2013-02-09 14:25:00,34.5,28.3,30.24,South,172,6.0,6.0,78,0.00,,,0.00,Wunderground v.1.15,2013-02-09 20:25:00,
2013-02-09 14:30:00,34.7,27.9,30.24,SSE,150,6.0,6.0,76,0.00,,,0.00,Wunderground v.1.15,2013-02-09 20:30:00,
2013-02-09 14:40:00,34.3,28.2,30.23,South,174,7.0,7.0,78,0.00,,,0.00,Wunderground v.1.15,2013-02-09 20:40:00,
2013-02-09 14:45:00,33.7,27.3,30.23,South,172,8.0,8.0,77,0.00,,,0.00,Wunderground v.1.15,2013-02-09 20:45:00,
2013-02-09 14:55:00,33.1,27.3,30.22,SSE,149,6.0,7.0,79,0.00,,,0.00,Wunderground v.1.15,2013-02-09 20:55:00,
2013-02-09 15:00:00,33.8,28.0,30.22,SSE,157,5.0,5.0,79,0.00,,,0.00,Wunderground v.1.15,2013-02-09 21:00:00,
2013-02-09 15:10:00,33.6,27.5,30.22,SSE,154,6.0,7.0,78,0.00,,,0.00,Wunderground v.1.15,2013-02-09 21:10:00,
2013-02-09 15:15:00,33.4,27.6,30.21,SSE,155,6.0,10.0,79,0.00,,,0.00,Wunderground v.1.15,2013-02-09 21:15:00,
2013-02-09 15:25:00,33.5,28.0,30.21,SE,145,5.0,10.0,80,0.00,,,0.00,Wunderground v.1.15,2013-02-09 21:25:00,
2013-02-09 15:35:00,34.1,28.3,30.20,SSE,150,6.0,10.0,79,0.00,,,0.00,Wunderground v.1.15,2013-02-09 21:35:00,
2013-02-09 15:45:00,34.4,28.2,30.20,SSE,167,6.0,9.0,78,0.00,,,0.00,Wunderground v.1.15,2013-02-09 21:45:00,
2013-02-09 15:55:00,33.7,28.2,30.20,NE,49,5.0,7.0,80,0.00,,,0.00,Wunderground v.1.15,2013-02-09 21:55:00,
2013-02-09 16:00:00,33.4,28.2,30.20,SSE,147,4.0,5.0,81,0.00,,,0.00,Wunderground v.1.15,2013-02-09 22:00:00,
2013-02-09 16:10:00,33.2,27.7,30.20,SSE,166,6.0,7.0,80,0.00,,,0.00,Wunderground v.1.15,2013-02-09 22:10:00,
2013-02-09 16:20:00,33.3,28.1,30.19,SE,146,6.0,8.0,81,0.00,,,0.00,Wunderground v.1.15,2013-02-09 22:20:00,
2013-02-09 16:30:00,32.8,27.6,30.18,SE,143,5.0,5.0,81,0.00,,,0.00,Wunderground v.1.15,2013-02-09 22:30:00,
2013-02-09 16:35:00,32.5,27.3,30.18,SSE,149,4.0,5.0,81,0.00,,,0.00,Wunderground v.1.15,2013-02-09 22:35:00,
2013-02-09 16:45:00,32.0,27.4,30.18,SE,146,4.0,8.0,83,0.00,,,0.00,Wunderground v.1.15,2013-02-09 22:45:00,
2013-02-09 16:50:00,31.8,27.2,30.18,South,170,4.0,6.0,83,0.00,,,0.00,Wunderground v.1.15,2013-02-09 22:50:00,
2013-02-09 17:00:00,31.5,27.2,30.17,SSE,165,4.0,4.0,84,0.00,,,0.00,Wunderground v.1.15,2013-02-09 23:00:00,
2013-02-09 17:10:00,31.4,27.4,30.17,SSE,154,3.0,4.0,85,0.00,,,0.00,Wunderground v.1.15,2013-02-09 23:10:00,
2013-02-09 17:20:00,31.2,27.2,30.17,SE,131,3.0,3.0,85,0.00,,,0.00,Wunderground v.1.15,2013-02-09 23:20:00,
2013-02-09 17:25:00,31.0,27.3,30.17,SE,143,3.0,3.0,86,0.00,,,0.00,Wunderground v.1.15,2013-02-09 23:25:00,
2013-02-09 17:35:00,30.8,27.4,30.17,SE,142,3.0,3.0,87,0.00,,,0.00,Wunderground v.1.15,2013-02-09 23:35:00,
2013-02-09 17:40:00,30.8,27.4,30.17,SSE,148,2.0,3.0,87,0.00,,,0.00,Wunderground v.1.15,2013-02-09 23:40:00,
2013-02-09 17:50:00,31.0,27.9,30.16,South,179,2.0,3.0,88,0.00,,,0.00,Wunderground v.1.15,2013-02-09 23:50:00,
2013-02-09 18:00:00,31.2,28.1,30.16,South,172,3.0,5.0,88,0.00,,,0.00,Wunderground v.1.15,2013-02-10 00:00:00,
2013-02-09 18:10:00,31.3,28.2,30.16,SSE,153,2.0,2.0,88,0.00,,,0.00,Wunderground v.1.15,2013-02-10 00:10:00,
2013-02-09 18:15:00,31.2,27.8,30.15,SE,132,1.0,2.0,87,0.00,,,0.00,Wunderground v.1.15,2013-02-10 00:15:00,
2013-02-09 18:25:00,30.8,27.7,30.15,ESE,104,0.0,2.0,88,0.00,,,0.00,Wunderground v.1.15,2013-02-10 00:25:00,
2013-02-09 18:30:00,30.9,28.0,30.14,ESE,123,1.0,1.0,89,0.00,,,0.00,Wunderground v.1.15,2013-02-10 00:30:00,
2013-02-09 18:40:00,30.7,27.8,30.14,East,98,0.0,0.0,89,0.00,,,0.00,Wunderground v.1.15,2013-02-10 00:40:00,
2013-02-09 18:45:00,30.6,27.7,30.14,SE,135,1.0,1.0,89,0.00,,,0.00,Wunderground v.1.15,2013-02-10 00:45:00,
2013-02-09 18:55:00,30.2,27.3,30.14,ESE,120,0.0,0.0,89,0.00,,,0.00,Wunderground v.1.15,2013-02-10 00:55:00,
2013-02-09 19:00:00,30.0,27.4,30.14,SE,138,0.0,0.0,90,0.00,,,0.00,Wunderground v.1.15,2013-02-10 01:00:00,
2013-02-09 19:10:00,29.8,27.5,30.14,SE,129,0.0,0.0,91,0.00,,,0.00,Wunderground v.1.15,2013-02-10 01:10:00,
2013-02-09 19:20:00,30.0,28.0,30.13,SE,131,0.0,0.0,92,0.00,,,0.00,Wunderground v.1.15,2013-02-10 01:20:00,
2013-02-09 19:30:00,30.6,28.6,30.13,SE,143,1.0,1.0,92,0.00,,,0.00,Wunderground v.1.15,2013-02-10 01:30:00,
2013-02-09 19:35:00,31.0,28.9,30.13,SE,132,1.0,1.0,92,0.00,,,0.00,Wunderground v.1.15,2013-02-10 01:35:00,
2013-02-09 19:45:00,31.6,29.3,30.13,SSW,196,2.0,2.0,91,0.00,,,0.00,Wunderground v.1.15,2013-02-10 01:45:00,
2013-02-09 19:50:00,31.7,29.4,30.12,ESE,111,2.0,2.0,91,0.00,,,0.00,Wunderground v.1.15,2013-02-10 01:50:00,
2013-02-09 20:00:00,32.1,29.5,30.12,SE,138,3.0,3.0,90,0.00,,,0.00,Wunderground v.1.15,2013-02-10 02:00:00,
2013-02-09 20:05:00,32.3,29.7,30.12,SSE,162,3.0,3.0,90,0.00,,,0.00,Wunderground v.1.15,2013-02-10 02:05:00,
2013-02-09 20:15:00,32.5,29.6,30.12,SE,142,3.0,3.0,89,0.00,,,0.00,Wunderground v.1.15,2013-02-10 02:15:00,
2013-02-09 20:25:00,32.6,29.4,30.12,SSE,161,3.0,5.0,88,0.00,,,0.00,Wunderground v.1.15,2013-02-10 02:25:00,
2013-02-09 20:35:00,32.6,29.4,30.12,SE,124,4.0,4.0,88,0.00,,,0.00,Wunderground v.1.15,2013-02-10 02:35:00,
2013-02-09 20:40:00,32.5,29.3,30.11,SSE,147,3.0,3.0,88,0.00,,,0.00,Wunderground v.1.15,2013-02-10 02:40:00,
2013-02-09 20:50:00,32.4,29.0,30.11,SSE,162,3.0,3.0,87,0.00,,,0.00,Wunderground v.1.15,2013-02-10 02:50:00,
2013-02-09 20:55:00,32.5,29.1,30.11,SSE,148,3.0,3.0,87,0.00,,,0.00,Wunderground v.1.15,2013-02-10 02:55:00,
2013-02-09 21:00:00,32.6,28.9,30.11,SE,138,3.0,5.0,86,0.00,,,0.00,Wunderground v.1.15,2013-02-10 03:00:00,
2013-02-09 21:10:00,32.9,29.2,30.10,SE,140,3.0,4.0,86,0.00,,,0.00,Wunderground v.1.15,2013-02-10 03:10:00,
2013-02-09 21:15:00,32.9,28.9,30.10,SSE,147,3.0,4.0,85,0.00,,,0.00,Wunderground v.1.15,2013-02-10 03:15:00,
2013-02-09 21:25:00,33.0,29.0,30.10,SE,136,4.0,4.0,85,0.00,,,0.00,Wunderground v.1.15,2013-02-10 03:25:00,
2013-02-09 21:30:00,33.2,28.9,30.10,South,173,4.0,4.0,84,0.00,,,0.00,Wunderground v.1.15,2013-02-10 03:30:00,
2013-02-09 21:40:00,33.8,28.9,30.09,SSE,152,6.0,7.0,82,0.00,,,0.00,Wunderground v.1.15,2013-02-10 03:40:00,
2013-02-09 21:45:00,34.0,29.1,30.09,SE,136,6.0,7.0,82,0.00,,,0.00,Wunderground v.1.15,2013-02-10 03:45:00,
2013-02-09 21:55:00,33.9,29.0,30.09,SSE,158,5.0,6.0,82,0.00,,,0.00,Wunderground v.1.15,2013-02-10 03:55:00,
2013-02-09 22:00:00,33.7,28.8,30.09,SE,146,4.0,4.0,82,0.00,,,0.00,Wunderground v.1.15,2013-02-10 04:00:00,
2013-02-09 22:10:00,33.5,28.6,30.09,SE,129,4.0,4.0,82,0.00,,,0.00,Wunderground v.1.15,2013-02-10 04:10:00,
2013-02-09 22:20:00,33.2,28.6,30.08,ESE,122,3.0,4.0,83,0.00,,,0.00,Wunderground v.1.15,2013-02-10 04:20:00,
2013-02-09 22:30:00,33.1,28.5,30.08,SSE,163,3.0,3.0,83,0.00,,,0.00,Wunderground v.1.15,2013-02-10 04:30:00,
2013-02-09 22:35:00,33.1,28.5,30.08,SE,146,3.0,3.0,83,0.00,,,0.00,Wunderground v.1.15,2013-02-10 04:35:00,
2013-02-09 22:45:00,32.9,28.3,30.08,SSE,155,2.0,4.0,83,0.00,,,0.00,Wunderground v.1.15,2013-02-10 04:45:00,
2013-02-09 22:50:00,32.7,28.4,30.08,SSE,147,2.0,2.0,84,0.00,,,0.00,Wunderground v.1.15,2013-02-10 04:50:00,
2013-02-09 23:00:00,32.5,28.2,30.08,SSE,150,2.0,2.0,84,0.00,,,0.00,Wunderground v.1.15,2013-02-10 05:00:00,
2013-02-09 23:05:00,32.5,28.2,30.07,ESE,105,2.0,2.0,84,0.00,,,0.00,Wunderground v.1.15,2013-02-10 05:05:00,
2013-02-09 23:10:00,32.4,28.4,30.07,SSE,159,2.0,4.0,85,0.00,,,0.00,Wunderground v.1.15,2013-02-10 05:10:00,
2013-02-09 23:15:00,32.5,28.5,30.06,SE,145,3.0,4.0,85,0.00,,,0.00,Wunderground v.1.15,2013-02-10 05:15:00,
2013-02-09 23:25:00,32.6,28.3,30.06,East,88,3.0,6.0,84,0.00,,,0.00,Wunderground v.1.15,2013-02-10 05:25:00,
2013-02-09 23:35:00,32.9,28.6,30.07,SSE,160,4.0,4.0,84,0.00,,,0.00,Wunderground v.1.15,2013-02-10 05:35:00,
2013-02-09 23:40:00,32.9,28.6,30.07,SSE,148,4.0,4.0,84,0.00,,,0.00,Wunderground v.1.15,2013-02-10 05:40:00,
2013-02-09 23:50:00,32.9,28.3,30.06,SE,136,3.0,3.0,83,0.00,,,0.00,Wunderground v.1.15,2013-02-10 05:50:00,
2013-02-09 23:55:00,33.0,28.4,30.06,SSE,159,3.0,5.0,83,0.00,,,0.00,Wunderground v.1.15,2013-02-10 05:55:00,